Tracking 25195 objects as of 21-Jan-2022
HD Live streaming from Space Station
objects crossing your sky now

STARLINK-1636

Track STARLINK-1636 now!
10-day predictions
STARLINK-1636 is classified as:


NORAD ID: 46153
Int'l Code: 2020-057AN
Perigee: 552.8 km
Apogee: 555.9 km
Inclination: 53.1 °
Period: 95.6 minutes
Semi major axis: 6925 km
RCS: Unknown
Launch date: August 18, 2020
Source: United States (US)
Launch site: AIR FORCE EASTERN TEST RANGE (AFETR)
aabbcc
Your satellite tracking list
Your tracking list is empty




NASA's NSSDC Master Catalog

Two Line Element Set (TLE):
1 46153U 20057AN  22020.32110581 -.00000319  00000-0 -24767-5 0  9996
2 46153  53.0541 232.4458 0002229  71.8813 288.2418 15.06394909 78846
Source of the keplerian elements: AFSPC